Location: Sinnemahoning State Park
(41.4031°N, 78.0230°W)
Time: 01:26:08
(UTC-04:00)

Daily predictions for brighter satellites

Satellite Brightness Start Highest point End
(mag) Time Altitude Azimuth Time Altitude Azimuth Time Altitude Azimuth
ALOS 2 3.5 00:06:32 35° E 00:06:55 36° ENE 00:10:56 10° N
Cosmos 1626 4.1 00:06:15 19° W 00:07:21 22° WNW 00:10:19 10° NNW
CZ-4 R/B 3.8 00:03:11 10° NNE 00:07:56 63° ESE 00:08:08 62° ESE
Cosmos 1408 Rocket 3.6 00:07:39 65° SW 00:08:07 72° W 00:12:36 10° N
Mayak -0.3 00:04:57 10° NNE 00:08:13 36° ENE 00:08:13 36° ENE
Cosmos 2297 4.0 00:06:55 30° SW 00:09:40 64° WNW 00:15:23 10° NNE
Cosmos 1766 Rocket 4.0 00:08:57 48° WSW 00:09:42 55° W 00:14:07 10° N
Cosmos 1703 4.0 00:12:19 42° W 00:12:34 43° WNW 00:16:18 10° N
Cosmos 2082 Rocket 2.5 00:08:08 10° NNW 00:13:42 54° WSW 00:14:50 46° SSW
Cosmos 1833 Rocket 3.2 00:08:53 10° NW 00:14:14 46° WSW 00:15:20 41° SW
Cosmos 371 Rocket 3.8 00:10:53 10° N 00:15:35 47° ENE 00:16:18 44° E
Cosmos 2058 2.9 00:17:53 73° WNW 00:17:53 73° WNW 00:21:59 10° N
Cosmos 2151 2.9 00:18:32 85° NNE 00:18:32 85° NNE 00:22:41 10° N
CZ-2C R/B 3.5 00:13:33 10° N 00:18:40 44° WNW 00:21:06 27° WSW
Cosmos 1515 Rocket 3.6 00:14:27 10° N 00:18:52 68° E 00:18:53 68° E
BREEZE-M R/B 4.1 00:16:43 10° WNW 00:22:32 82° SW 00:25:12 39° SE
H-2A R/B 3.2 00:23:20 31° ENE 00:23:26 31° ENE 00:27:04 10° N
Cosmos 1869 3.7 00:21:45 10° N 00:25:18 55° NE 00:25:18 55° NE
Meteor 2-14 Rocket 4.5 00:19:55 10° N 00:25:59 68° E 00:27:22 52° SE
Cosmos 2074 Rocket 4.1 00:21:14 10° NNW 00:27:27 71° W 00:29:11 49° SSW
Cosmos 1943 Rocket 3.3 00:30:13 29° E 00:30:13 29° E 00:34:42 10° NE
Cosmos 1455 3.7 00:31:06 10° NNW 00:34:03 28° W 00:34:03 28° W
CZ-4B R/B 3.7 00:30:30 10° NNE 00:35:40 54° E 00:35:58 54° ESE
Meteor 2-21 4.3 00:30:03 10° N 00:36:07 81° W 00:37:26 57° S
Terra 4.2 00:41:23 10° WSW 00:42:39 11° W 00:44:13 10° WNW
Cosmos 332 Rocket 3.6 00:40:33 10° NNW 00:45:30 86° WSW 00:45:40 83° SSW
DELTA 2 DEB (DPAF) 4.0 00:46:50 84° NW 00:46:50 84° NW 00:51:12 10° NNW
Cosmos 1140 Rocket 3.3 00:55:09 72° SW 00:55:39 81° WNW 01:00:49 10° NNE
Cosmos 1892 4.2 00:57:28 28° ENE 00:57:28 28° ENE 00:59:53 10° NNE
ADEOS Rocket 3.1 00:50:42 10° N 00:56:44 79° WNW 00:58:38 49° SSW
Cosmos 614 Rocket 3.9 00:56:57 65° WSW 00:57:35 74° WNW 01:02:43 10° NNE
Cosmos 2228 Rocket 3.8 00:56:13 10° NNW 01:00:15 42° W 01:00:15 42° W
Cosmos 1741 Rocket 4.4 01:03:46 49° ESE 01:03:50 49° ESE 01:08:55 10° NNE
COSMOS 2487 3.8 01:00:26 10° NNW 01:02:41 37° NNW 01:02:41 37° NNW
CENTAUR R/B 3.8 00:58:01 10° NW 01:05:25 39° WSW 01:07:22 35° SW
CZ-4C R/B 4.1 01:09:48 44° NW 01:09:48 44° NW 01:12:44 10° NNW
Meteor 2-10 Rocket 4.0 01:04:16 10° NNW 01:09:15 48° W 01:09:40 47° WSW
Sich 1 3.7 01:11:02 47° ENE 01:11:02 47° ENE 01:14:54 10° NNE
Cosmos 1805 Rocket 3.7 01:11:27 69° NE 01:11:27 69° NE 01:15:30 10° NNE
Cosmos 1954 Rocket 4.2 01:11:13 52° WSW 01:12:01 59° WNW 01:17:09 10° NNE
Cosmos 2154 Rocket 4.3 01:08:09 10° NNW 01:14:20 55° W 01:15:42 46° SW
BREEZE-M DEB (TANK) 4.3 01:13:09 10° W 01:17:50 40° NNW 01:21:12 10° NE
Cosmos 2181 Rocket 3.9 01:18:53 58° S 01:20:15 90° ESE 01:26:32 10° N
USA 234 3.3 01:14:07 10° NE 01:20:32 56° SE 01:21:30 51° SSE
Cosmos 2341 Rocket 4.2 01:24:58 10° NNW 01:31:15 62° W 01:32:35 51° SW
Lacrosse 4 Rocket 2.9 01:35:25 28° E 01:35:25 28° E 01:38:32 10° NE
Cosmos 1933 3.7 01:31:29 10° N 01:34:54 63° N 01:34:54 63° N
Cosmos 1707 Rocket 3.6 01:31:35 10° N 01:35:41 77° NNW 01:35:41 77° NNW
Cosmos 1633 Rocket 3.2 01:36:22 67° ENE 01:36:22 67° ENE 01:40:33 10° NNE
SL-8 Rocket 3.9 01:30:11 10° N 01:36:30 84° W 01:37:54 57° S
Cosmos 304 Rocket 3.6 01:31:57 10° NNW 01:36:40 78° W 01:36:40 78° W
Cosmos 2369 Rocket 2.5 01:36:42 46° WSW 01:38:04 58° WNW 01:43:40 10° NNE
Cosmos 2218 Rocket 3.9 01:33:04 10° N 01:39:16 85° E 01:40:43 56° SSE
Cosmos 1408 3.9 01:42:25 35° ENE 01:42:25 35° ENE 01:45:09 10° NNE
ALOS 2 4.4 01:43:56 20° W 01:43:56 20° W 01:46:37 10° NW
Mayak 0.8 01:41:22 10° NNW 01:44:10 18° WNW 01:44:50 17° WNW
Cosmos 1470 Rocket 4.2 01:46:15 44° E 01:46:16 44° E 01:50:31 10° NNE
Cosmos 1656 Rocket 3.8 01:51:12 54° SE 01:51:56 59° ESE 01:57:29 10° NNE
MOS 1 Rocket 3.1 01:47:11 10° NNE 01:52:05 88° ESE 01:52:16 83° S
Cosmos 1570 Rocket 3.8 01:47:18 10° NNW 01:52:35 84° WSW 01:53:08 72° S
Meteor 2-3 Rocket 3.7 01:53:55 60° S 01:55:00 82° E 02:00:50 10° NNE
Cosmos 1825 2.9 01:58:43 49° ENE 01:58:43 49° ENE 02:01:51 10° NNE
Cosmos 1850 Rocket 4.4 01:57:26 45° WSW 01:58:22 51° WNW 02:03:30 10° N
H-2A R/B 3.9 02:00:26 19° WNW 02:00:26 19° WNW 02:02:34 10° NW
Cosmos 1666 Rocket 4.0 02:02:53 48° WNW 02:02:53 48° WNW 02:06:58 10° N
Cosmos 2366 rocket 4.0 01:58:59 10° NNW 02:05:05 67° W 02:06:25 52° SSW
Cosmos 1763 Rocket 3.8 02:01:30 10° NNW 02:06:31 60° ENE 02:07:57 43° SE
Cosmos 1606 3.1 02:03:59 10° N 02:07:31 57° ENE 02:07:31 57° ENE
Cosmos 1933 Rocket 3.6 02:08:01 63° ESE 02:08:06 63° E 02:12:26 10° NNE
Cosmos 292 Rocket 4.5 02:06:52 10° N 02:11:34 49° ENE 02:13:14 34° ESE
Cosmos 1943 Rocket 3.1 02:11:43 31° W 02:13:31 39° WNW 02:18:46 10° N
CZ-2D R/B 3.9 02:10:11 10° NE 02:14:14 21° E 02:16:20 17° SE
Nadezhda 3 Rocket 4.1 02:16:03 45° SSE 02:18:06 74° E 02:24:26 10° N
CRYOSAT 2 4.3 02:17:26 61° SSE 02:18:15 78° E 02:23:09 10° N
CZ-4B R/B 2.7 02:19:27 34° NE 02:19:27 34° NE 02:21:52 10° N
Cosmos 1689 Rocket 3.9 02:20:12 29° ENE 02:20:12 29° ENE 02:22:35 10° N
SL-16 R/B 3.6 02:21:30 13° SE 02:26:28 40° ENE 02:32:09 10° N
Spot 2 4.2 02:23:16 10° NNE 02:27:29 55° ESE 02:27:45 54° ESE
ATLAS 5 CENTAUR R/B 3.9 02:26:36 31° SSE 02:28:50 42° ESE 02:43:31 10° NE
BREEZE M DEB (TANK) 4.4 02:20:47 10° W 02:28:52 35° NNW 02:31:53 10° NE
Resurs 1-4 Rocket 3.4 02:28:09 10° NNE 02:32:53 32° E 02:35:01 24° SE
Cosmos 1814 Rocket 3.9 02:28:44 10° NNW 02:34:03 86° WSW 02:35:25 51° SSE
Cosmos 1833 4.4 02:29:09 10° NW 02:34:32 50° WSW 02:35:12 48° SW
PSLV R/B 4.4 02:31:54 10° N 02:36:25 44° WNW 02:37:15 40° W
Cosmos 841 Rocket 3.4 02:34:29 10° NNW 02:39:44 82° ENE 02:41:33 41° SSE
GP-B 3.0 02:37:36 10° N 02:42:05 87° W 02:42:42 66° S
Cosmos 1869 Rocket 4.2 02:43:34 40° SE 02:44:34 48° E 02:48:48 10° NNE
SL-08 R/B 4.3 02:41:50 20° SE 02:44:38 42° ENE 02:49:01 10° N
Cosmos 2242 Rocket 4.3 02:44:39 10° NNW 02:48:46 37° W 02:48:47 37° W
SL-8 R/B 3.7 02:44:40 10° WNW 02:49:31 83° NNE 02:54:21 10° ESE
Meteor 2-6 Rocket 4.0 02:47:10 10° NNW 02:52:35 80° W 02:54:27 42° S
H-2A R/B 3.4 02:49:53 10° NNE 02:53:30 34° E 02:54:24 30° SE
Cosmos 2221 Rocket 4.5 02:51:26 10° N 02:55:43 45° ENE 02:57:57 25° SE
Cosmos 1437 Rocket 3.1 02:55:46 50° SE 02:56:33 61° E 03:00:37 10° NNE
Cosmos 2219 3.5 02:51:46 10° NNW 02:57:25 67° ENE 03:02:04 15° SE
USA 229 DEB 4.0 02:51:55 10° NNW 02:59:09 74° NE 03:06:33 10° SE
USA 229 4.0 02:52:02 10° NNW 02:59:15 73° NE 03:06:40 10° SE
Cosmos 1867 4.0 02:57:21 34° WSW 02:59:27 53° NW 03:04:49 10° NNE
Okean 1-7 3.2 02:55:36 10° N 03:00:00 71° E 03:01:29 40° SSE
Genesis I 3.9 02:56:58 10° NNW 03:01:01 54° NE 03:04:15 15° SE
COSMOS 2455 2.7 02:54:58 10° NNW 03:01:01 80° WSW 03:04:51 24° SSE
UNK 4.0 02:59:21 29° SSE 03:01:39 66° ENE 03:06:16 10° N
Landsat 5 3.9 03:02:21 39° W 03:02:21 39° W 03:05:44 10° NNW
BREEZE-M DEB (TANK) 3.4 02:57:50 18° WSW 03:03:00 62° NNW 03:05:39 10° NE
USA 234 4.0 02:57:13 10° NE 03:03:27 48° NNW 03:08:49 14° W
Cosmos 1821 Rocket 4.1 02:58:06 10° NNW 03:04:22 66° W 03:07:10 35° SSW
Cosmos 1703 Rocket 3.4 03:00:21 10° NNW 03:04:45 74° W 03:05:42 53° SSW
Cosmos 1818 4.5 03:06:45 10° NW 03:11:22 29° WSW 03:11:22 29° WSW
Lacrosse 4 Rocket 3.0 03:11:44 23° W 03:13:18 28° NW 03:17:13 10° N
IRS-1D 3.8 03:10:00 10° NNE 03:15:02 59° E 03:17:29 29° S
AQUA 3.8 03:10:34 10° NNE 03:15:20 87° E 03:17:10 39° S
SL-24 DEB 4.1 03:13:50 41° S 03:15:24 77° W 03:20:02 10° N
Cosmos 1782 4.1 03:14:28 10° NW 03:17:32 25° W 03:17:32 25° W
Fregat R/B Cluster 11 4.2 03:17:38 37° W 03:18:09 42° NW 03:21:49 10° NNE
Cosmos 2297 Rocket 3.5 03:13:56 10° N 03:19:16 40° ENE 03:24:34 10° SE
Cosmos 1354 Rocket 3.9 03:21:11 35° SSW 03:23:27 87° ESE 03:28:43 10° NNE
Meteor 1-27 Rocket 3.8 03:18:40 10° NNW 03:24:29 73° W 03:27:53 26° S
ATLAS CENTAUR R/B 1.4 03:24:32 44° S 03:25:27 59° ESE 03:29:24 10° NE
Cosmos 44 3.3 03:25:57 36° SW 03:27:49 69° NW 03:32:47 10° NNE
Cosmos 2227 Rocket 3.0 03:22:44 10° NNW 03:28:19 52° ENE 03:33:49 10° SE
Cosmos 1733 Rocket 4.0 03:26:53 20° SSE 03:29:31 42° E 03:33:38 10° NNE
Lacrosse 5 3.6 03:24:52 10° NNW 03:29:32 35° NE 03:34:11 10° E
Cosmos 44 Rocket 3.3 03:29:14 35° SSW 03:31:18 78° ESE 03:36:19 10° NE
Cosmos 968 Rocket 3.9 03:28:35 25° S 03:31:32 57° ESE 03:36:42 10° NNE
Cosmos 374 Rocket 4.4 03:26:46 10° NW 03:31:36 86° WSW 03:35:30 10° SSE
IRS-1C 4.1 03:27:48 10° NNE 03:33:10 82° WNW 03:36:00 29° SSW
ADEOS II 3.7 03:32:31 10° NE 03:37:01 28° E 03:41:28 10° SSE
Cosmos 1656 4.3 03:34:57 21° S 03:38:36 51° ESE 03:44:04 10° NNE
Shenzhou-11 Module 4.1 03:44:12 16° SE 03:44:12 16° SE 03:45:50 10° ESE
Meteor 1-4 Rocket 3.1 03:46:08 34° WSW 03:47:10 43° WNW 03:50:44 10° N
Cosmos 1503 Rocket 4.4 03:48:28 26° SW 03:51:10 51° WNW 03:56:14 10° N
CZ-2D R/B 4.1 03:48:48 10° NNE 03:52:56 52° E 03:55:56 17° S
CZ-2D R/B 2.6 03:49:23 10° N 03:54:30 49° WNW 03:57:40 22° SW
Cosmos 389 Rocket 2.5 03:53:16 29° S 03:55:02 87° W 03:58:42 10° N
Cosmos 540 Rocket 4.2 03:51:03 10° NW 03:55:37 33° W 03:57:47 24° SW
Helios 1A Rocket 3.7 03:52:33 10° NNE 03:56:27 46° E 03:59:42 14° S
Cosmos 1184 Rocket 4.1 03:55:37 10° NW 03:58:17 23° W 03:58:24 23° W
ARIANE 5 R/B 2.5 03:54:46 10° N 03:59:45 72° WNW 04:03:08 21° SSW
Delta 2 Rocket 4.2 03:58:55 27° SW 03:59:55 30° SSW 04:03:57 10° SE
Cosmos 1605 Rocket 4.3 03:54:54 10° NNW 04:00:44 49° W 04:05:06 18° SSW
GPS 2-04 Rocket1 3.4 04:01:19 26° SW 04:02:56 36° S 04:06:44 10° ESE
UNKNOWN OBJECT B 3.1 04:00:13 10° NNE 04:04:14 69° ESE 04:07:21 16° S
Cosmos 2082 3.9 03:59:54 10° NNW 04:05:34 77° ENE 04:11:11 10° SSE
Cosmos 1459 Rocket 4.3 04:00:07 10° N 04:06:31 72° E 04:12:50 10° SSE
SL-16 R/B 3.3 04:06:35 19° SSW 04:10:06 33° W 04:15:36 10° NNW
Resurs 1-4 Rocket 3.1 04:07:57 10° N 04:12:39 33° WNW 04:16:05 17° WSW
NOSS 3-1 (C) 4.1 04:05:47 10° NW 04:13:26 68° WSW 04:21:53 10° SSE
SAR-Lupe-2 3.5 04:10:26 10° SSE 04:13:59 87° WSW 04:17:35 10° NNW
Cosmos 2100 Rocket 4.0 04:09:24 10° N 04:15:38 89° E 04:21:52 10° S
ATLAS 2A CENTAUR R/B 4.2 04:08:13 14° SW 04:17:57 32° S 04:24:23 10° SE
Cosmos 1697 Rocket 2.9 04:13:34 14° SSW 04:18:31 70° ESE 04:24:10 10° NNE
Cosmos 1812 3.5 04:19:52 10° NNW 04:23:24 34° W 04:25:51 17° SSW
Okean 3 3.4 04:23:16 10° NNW 04:27:27 65° W 04:31:37 10° S
H-2A R/B 4.2 04:26:08 10° NNW 04:28:45 17° WNW 04:30:59 11° WSW
Meteor 1-18 Rocket 4.2 04:24:57 10° NNW 04:30:36 76° W 04:36:08 10° S
Meteor 1-14 Rocket 4.4 04:25:39 13° SSW 04:30:48 64° WNW 04:36:38 10° N
Okean O Rocket 4.5 04:29:09 10° ENE 04:31:01 12° E 04:32:53 10° ESE
Meteor 1-25 Rocket 4.3 04:26:32 13° SSW 04:31:31 63° WNW 04:37:02 10° N
Cosmos 1602 4.0 04:29:10 10° S 04:32:59 67° E 04:36:48 10° NNE
Lacrosse 5 rocket 3.2 04:30:08 10° S 04:33:46 26° ESE 04:37:33 10° ENE
Cosmos 1633 4.0 04:34:39 15° WSW 04:36:47 24° WNW 04:39:46 10° NNW
Cosmos 2123 Rocket 4.2 04:36:07 10° S 04:42:18 75° E 04:48:28 10° N
Sich 1 Rocket 3.7 04:39:13 10° S 04:43:38 79° E 04:48:04 10° N
Cosmos 2369 4.2 04:39:06 12° SW 04:44:04 49° WNW 04:49:35 10° NNE
BREEZE-M DEB (TANK) 4.0 04:41:54 10° W 04:44:43 27° SSW 04:51:09 10° SSE
SL-16 R/B 4.4 04:41:15 10° SSE 04:45:21 21° E 04:49:27 10° NE
Meteor 1-19 Rocket 4.4 04:40:32 10° N 04:46:04 75° E 04:51:34 10° SSE
Cosmos 1980 Rocket 2.5 04:40:45 10° SSW 04:46:17 67° ESE 04:51:54 10° NNE
ADEOS 4.0 04:43:38 10° N 04:48:41 50° WNW 04:53:41 10° SW
NOSS 3-1 (A) 4.2 04:43:22 10° NW 04:50:56 56° WSW 04:59:15 10° SSE
Okean 2 Rocket 4.2 04:48:12 10° SSE 04:52:24 45° E 04:56:39 10° NNE
Cosmos 2173 Rocket 4.2 04:48:14 10° NNW 04:54:03 49° W 04:59:52 10° SSW
NOSS 2-1 (C) 4.0 04:52:21 10° SSW 04:55:49 44° ESE 04:59:30 10° NE
NOSS 2-1 (D) 3.9 04:53:40 10° SSW 04:57:09 47° ESE 05:00:52 10° NE
Cosmos 1378 Rocket 3.9 04:53:27 10° NNW 04:57:45 48° W 05:02:01 10° SSW
Cosmos 2297 Rocket 3.1 04:58:20 10° NW 05:03:06 29° WSW 05:07:52 10° SSW
Cosmos 1782 Rocket 3.6 05:00:16 10° SSW 05:04:39 73° W 05:09:01 10° N
ATLAS CENTAUR R/B 3.5 05:02:27 10° WNW 05:04:51 16° NW 05:07:21 10° N
Cosmos 1538 Rocket 4.2 04:59:44 10° NNW 05:04:59 55° WSW 05:10:10 10° S
Meteor 2-4 Rocket 4.0 05:02:11 10° N 05:08:05 79° E 05:13:47 10° SSE
ASTEX 1 4.1 05:04:01 10° SSW 05:08:34 35° W 05:13:09 10° NNW
Meteor 1-11 Rocket 3.9 05:03:11 10° S 05:08:42 78° E 05:14:20 10° NNE
Cosmos 923 Rocket 4.3 05:05:46 10° NNW 05:11:01 76° ENE 05:16:17 10° SSE
Cosmos 2227 Rocket 3.4 05:07:41 10° NW 05:11:55 22° W 05:16:10 10° SSW
